[[{"header":{"parameterUnit":"m.s-1","parameterCategory":2,"la1":30.2991,"la2":30.254,"lo1":-89.0895,"lo2":-89.0444,"dy":0.0017,"dx":0.0017,"nx":28,"ny":28,"refTime":"2025-03-15T09:00:00:Z","depth":"0","parameterNumber":2,"parameterNumberName":"U-component_of_CURRENTS"},"data":[0,0,0,0,0,0,0,0,0,0,0,0,0,0,0,0,0,0,0,0,0,0,0,0,0,0,0,0,0,0,0,0,0,0,0,0,0,0,0,0,0,0,0,0,0,0,0,0,0,0,0,0,0,0,0,0,0,0,0.2546,0.2545,0,0.2473,0.2472,0.2472,0.2417,0.2416,0.2416,0.2415,0.2348,0.2346,0.2345,0,0,0,0,0,0,0,0,0,0,0,0,0,0.259,0.2589,0.2546,0.2545,0.2544,0.2474,0.2472,0.2471,0.2417,0.2416,0.2416,0.2415,0.2348,0.2347,0.2345,0,0,0,0,0,0,0,0,0,0,0,0,0,0.2548,0.2589,0.2546,0.2509,0.2506,0.2474,0.2472,0.2471,0.2417,0.2416,0.2416,0.2415,0.2349,0.2347,0.2345,0.2343,0,0,0.2338,0.2337,0,0,0,0,0,0,0,0,0.2551,0.2547,0.2516,0.2512,0.2507,0.2454,0.2463,0.2429,0.2417,0.2449,0.2415,0.2415,0.2385,0.238,0.2366,0.234,0.2337,0.2338,0.2336,0.2336,0.2335,0,0,0,0,0,0,0,0.2554,0.2549,0.2516,0.2515,0.251,0.248,0.2474,0.2456,0.2421,0.2446,0.2442,0.2437,0.2383,0.2368,0.2364,0.2336,0.2338,0.2336,0.2335,0.2334,0.236,0.2362,0,0,0,0,0,0,0.2568,0.2552,0.2518,0.2514,0.253,0.2481,0.2473,0.2471,0.242,0.2412,0.2437,0.2434,0.2372,0.2366,0.2361,0.241,0.2336,0.2334,0.2332,0.2358,0.2361,0.2363,0,0,0,0,0,0,0.257,0.2566,0.2521,0.2532,0.2524,0.2481,0.2478,0.247,0.2459,0.2414,0.2405,0.2435,0.2371,0.2364,0.2362,0.2405,0.2333,0.2331,0.2356,0.2359,0.2362,0.2474,0,0,0,0,0,0,0.2571,0.2567,0.2567,0.2533,0.2524,0.2516,0.2479,0.2469,0.2457,0.2452,0.241,0.2402,0.237,0.2366,0.236,0.2401,0.2329,0.2354,0.2357,0.2361,0.2468,0.248,0.2491,0,0,0,0,0,0.2573,0.2578,0.2568,0.2563,0.2527,0.2517,0.251,0.2475,0.2457,0.2461,0.2438,0.2404,0.2386,0.2366,0.2359,0.2399,0.2352,0.2356,0.2361,0.2462,0.2478,0.2491,0,0,0,0,0,0,0.2584,0.2572,0.256,0.2557,0.2545,0.2508,0.2504,0.2484,0.2467,0.2465,0.242,0.2412,0.2433,0.2399,0.2378,0.242,0.2367,0.2371,0.2447,0.2461,0.2473,0.2457,0.2327,0,0,0,0,0,0.2591,0.2598,0.2578,0.2575,0.2574,0.2543,0.2532,0.2517,0.2497,0.2487,0.2458,0.2441,0.2445,0.2439,0.2429,0.2443,0.243,0.2468,0.248,0.249,0.2474,0.2516,0.2531,0.2378,0.2378,0.2378,0,0,0.2587,0.2588,0.2584,0.258,0.2566,0.2568,0.2535,0.2533,0.2537,0.2485,0.2483,0.248,0.246,0.2483,0.249,0.2459,0.2532,0.2496,0.2504,0.2482,0.2523,0.2537,0.2551,0.2381,0.238,0.238,0,0,0.2585,0.2594,0.2594,0.26,0.2597,0.2591,0.2597,0.2576,0.2571,0.2575,0.2555,0.2575,0.2554,0.2561,0.256,0.2629,0.2597,0.2633,0.2673,0.2717,0.2729,0.274,0.2764,0.2776,0.2634,0.2635,0.2635,0,0.2577,0.2581,0.2591,0.26,0.2607,0.2608,0.2612,0.2616,0.2597,0.2605,0.2589,0.2605,0.2593,0.2636,0.2662,0.2656,0.2664,0.2623,0.2732,0.2743,0.2752,0.2773,0.2785,0.264,0.264,0.2639,0.2639,0,0.2574,0.2582,0.259,0.2608,0.2624,0.2635,0.2652,0.2669,0.2672,0.2671,0.2712,0.2709,0.2714,0.2735,0.2713,0.2784,0.2764,0.2749,0.2696,0.2774,0.2792,0.2802,0.2649,0.2647,0.2645,0.2644,0,0,0.2531,0.2575,0.2575,0.2591,0.2634,0.2645,0.2686,0.2715,0.2739,0.2754,0.2783,0.2818,0.282,0.2819,0.282,0.2854,0.2941,0.2828,0.2827,0.285,0.3028,0.2967,0.2972,0.295,0.2952,0.2954,0.3022,0,0.2516,0.2537,0.2569,0.2598,0.2613,0.266,0.2694,0.2735,0.2768,0.2803,0.2839,0.2865,0.2854,0.2868,0.291,0.293,0.2969,0.2922,0.2948,0.2948,0.2884,0.2983,0.2837,0.2881,0.3031,0.3033,0.3034,0,0.2488,0.2517,0.2535,0.2601,0.2612,0.2637,0.2713,0.2745,0.2816,0.2841,0.2894,0.2914,0.2978,0.2951,0.3034,0.3006,0.302,0.3034,0.3037,0.2938,0.2906,0.2823,0.2893,0.2899,0.3049,0.3048,0.3047,0,0.2447,0.2492,0.2512,0.2533,0.2604,0.263,0.2673,0.2748,0.2794,0.2866,0.2912,0.2977,0.3023,0.3059,0.3098,0.307,0.3181,0.3148,0.3108,0.3103,0.2958,0.2937,0.3027,0.3204,0.3204,0.3203,0.3203,0,0.2418,0.2433,0.2491,0.2504,0.2545,0.2604,0.2657,0.2711,0.2799,0.2857,0.2925,0.2989,0.3054,0.3126,0.3133,0.3163,0.3219,0.3125,0.3124,0.2995,0.2977,0.2953,0.2955,0.3206,0.3205,0.3205,0.3204,0,0.2361,0.2395,0.2423,0.2494,0.2521,0.2547,0.2651,0.269,0.2781,0.2864,0.2892,0.3025,0.3109,0.3171,0.3241,0.3212,0.3159,0.323,0.3065,0.3043,0.2963,0.2974,0.2854,0.2779,0.3177,0.3176,0.3175,0,0.2323,0.2331,0.2405,0.2421,0.2449,0.2506,0.2547,0.2659,0.2709,0.2878,0.2913,0.3045,0.313,0.323,0.3188,0.3199,0.3145,0.3058,0.2969,0.2954,0.2968,0.2832,0.2768,0.2834,0.283,0.2827,0.2825,0,0.2252,0.2279,0.2307,0.2352,0.2389,0.245,0.2519,0.2568,0.2695,0.2785,0.2915,0.3011,0.3109,0.3073,0.3088,0.3059,0.2922,0.2996,0.3031,0.2748,0.2553,0.2481,0.2796,0.2799,0.2802,0.2804,0.2805,0.2806,0.218,0.2185,0.2219,0.2261,0.2311,0.2365,0.2379,0.2469,0.2557,0.2646,0.2804,0.288,0.2935,0.2935,0.2898,0.2771,0.2755,0.2686,0.2716,0.2591,0.2464,0.2715,0.2685,0.2687,0.2689,0.269,0.2692,0,0.2067,0.2096,0.2127,0.2162,0.2183,0.2256,0.233,0.2322,0.2371,0.2498,0.2582,0.2643,0.2641,0.2668,0.2596,0.2519,0.2361,0.2491,0.2296,0.226,0.2542,0.2476,0.2338,0.2338,0.2338,0.2338,0.2338,0.2338,0.1998,0.1989,0.2021,0.2015,0.205,0.2044,0.2064,0.2087,0.215,0.2201,0.2236,0.2304,0.2515,0.2572,0.2514,0.2428,0.2292,0.2155,0.2219,0.2486,0.2507,0.2527,0.2469,0.2332,0.2332,0.1782,0.1779,0.1776]},{"header":{"parameterUnit":"m.s-1","parameterCategory":2,"la1":30.2991,"la2":30.254,"lo1":-89.0895,"lo2":-89.0444,"dy":0.0017,"dx":0.0017,"nx":28,"ny":28,"refTime":"2025-03-15T09:00:00:Z","depth":"0","parameterNumber":3,"parameterNumberName":"V-component_of_CURRENTS"},"data":[0,0,0,0,0,0,0,0,0,0,0,0,0,0,0,0,0,0,0,0,0,0,0,0,0,0,0,0,0,0,0,0,0,0,0,0,0,0,0,0,0,0,0,0,0,0,0,0,0,0,0,0,0,0,0,0,0,0,-0.0206,-0.0205,0,-0.0123,-0.0122,-0.0121,-0.0096,-0.0096,-0.0096,-0.0096,-0.0074,-0.0073,-0.0072,0,0,0,0,0,0,0,0,0,0,0,0,0,-0.0342,-0.034,-0.0206,-0.0205,-0.0203,-0.0123,-0.0122,-0.0121,-0.0096,-0.0096,-0.0096,-0.0096,-0.0074,-0.0073,-0.0072,0,0,0,0,0,0,0,0,0,0,0,0,0,-0.0276,-0.034,-0.0206,-0.0179,-0.0175,-0.0123,-0.0122,-0.0121,-0.0096,-0.0096,-0.0096,-0.0096,-0.0074,-0.0073,-0.0072,-0.0061,0,0,-0.0069,-0.0068,0,0,0,0,0,0,0,0,-0.028,-0.0272,-0.0184,-0.0181,-0.0176,-0.0117,-0.0162,-0.0103,-0.0095,-0.0129,-0.0096,-0.0096,-0.0092,-0.0089,-0.0076,-0.006,-0.0059,-0.0069,-0.0068,-0.0068,-0.0067,0,0,0,0,0,0,0,-0.0285,-0.0275,-0.0176,-0.0183,-0.0178,-0.017,-0.0161,-0.015,-0.0114,-0.0126,-0.0123,-0.0109,-0.0091,-0.0078,-0.0076,-0.0059,-0.0069,-0.0068,-0.0067,-0.0067,-0.005,-0.005,0,0,0,0,0,0,-0.0288,-0.0279,-0.0179,-0.0173,-0.0227,-0.0167,-0.0158,-0.0138,-0.0112,-0.0107,-0.0109,-0.0108,-0.0079,-0.0077,-0.0075,-0.0075,-0.0068,-0.0067,-0.0066,-0.0049,-0.005,-0.005,0,0,0,0,0,0,-0.0292,-0.028,-0.0182,-0.0223,-0.0209,-0.0165,-0.0143,-0.0137,-0.0121,-0.0098,-0.0095,-0.01,-0.0079,-0.0077,-0.0064,-0.0074,-0.0066,-0.0065,-0.0049,-0.0049,-0.005,-0.0066,0,0,0,0,0,0,-0.0296,-0.0282,-0.0269,-0.0223,-0.0207,-0.0148,-0.0143,-0.0135,-0.0111,-0.0109,-0.0089,-0.0087,-0.0079,-0.0066,-0.0063,-0.0072,-0.0064,-0.0049,-0.0049,-0.005,-0.0065,-0.0067,-0.0068,0,0,0,0,0,-0.0301,-0.0279,-0.0269,-0.0257,-0.0191,-0.0148,-0.0139,-0.0111,-0.011,-0.0099,-0.009,-0.0088,-0.0067,-0.0065,-0.0062,-0.007,-0.0049,-0.0049,-0.005,-0.0064,-0.0066,-0.0068,0,0,0,0,0,0,-0.0318,-0.0272,-0.0261,-0.0222,-0.0188,-0.0142,-0.0125,-0.011,-0.0093,-0.0094,-0.0083,-0.008,-0.0075,-0.0068,-0.0066,-0.0067,-0.006,-0.006,-0.0073,-0.0075,-0.0076,-0.0063,-0.0063,0,0,0,0,0,-0.0318,-0.0298,-0.0251,-0.022,-0.0205,-0.0168,-0.0147,-0.0128,-0.0104,-0.0095,-0.0084,-0.0077,-0.0074,-0.007,-0.0063,-0.0057,-0.006,-0.0063,-0.0065,-0.0066,-0.0054,-0.0068,-0.007,-0.0051,-0.0051,-0.0051,0,0,-0.0311,-0.0287,-0.0271,-0.0224,-0.0198,-0.017,-0.0157,-0.0123,-0.0105,-0.0097,-0.0079,-0.0079,-0.0073,-0.007,-0.0068,-0.0065,-0.0077,-0.0067,-0.0068,-0.0054,-0.0069,-0.007,-0.0072,-0.0052,-0.0052,-0.0051,0,0,-0.029,-0.0272,-0.0247,-0.0226,-0.0187,-0.0168,-0.016,-0.0119,-0.0107,-0.0087,-0.0086,-0.0088,-0.0074,-0.0075,-0.0074,-0.0078,-0.0084,-0.0082,-0.0078,-0.0093,-0.0094,-0.0096,-0.0119,-0.0123,-0.0084,-0.0084,-0.0084,0,-0.0282,-0.0247,-0.0232,-0.0208,-0.0188,-0.017,-0.014,-0.0126,-0.0088,-0.0076,-0.0084,-0.0072,-0.0076,-0.0073,-0.008,-0.0081,-0.0091,-0.0073,-0.0095,-0.0096,-0.0097,-0.0121,-0.0124,-0.0084,-0.0084,-0.0084,-0.0084,0,-0.0244,-0.0219,-0.0205,-0.0176,-0.0156,-0.0129,-0.0109,-0.0092,-0.0086,-0.0071,-0.0064,-0.0072,-0.0062,-0.0077,-0.008,-0.0091,-0.0098,-0.0097,-0.0091,-0.01,-0.0125,-0.0128,-0.0086,-0.0085,-0.0085,-0.0085,0,0,-0.0216,-0.0183,-0.0178,-0.016,-0.0139,-0.0112,-0.0096,-0.0064,-0.004,-0.0043,-0.0022,-0.0043,-0.0049,-0.0049,-0.0064,-0.0084,-0.0118,-0.0094,-0.0095,-0.0118,-0.0158,-0.0135,-0.0137,-0.0122,-0.0123,-0.0123,-0.0179,0,-0.0187,-0.0139,-0.0136,-0.0096,-0.0069,-0.0063,-0.0041,-0.0019,-0.001,0.001,-0.0016,-0.0006,-0.004,-0.0039,-0.0067,-0.009,-0.0124,-0.0103,-0.0144,-0.0145,-0.0124,-0.0138,-0.0096,-0.0139,-0.0182,-0.0182,-0.0183,0,-0.0155,-0.0125,-0.008,-0.0045,-0.0031,-0.0014,0.0025,0.0049,0.0065,0.007,0.0059,0.0047,0.0018,-0.0012,-0.0073,-0.0058,-0.011,-0.0143,-0.0146,-0.0115,-0.0127,-0.0133,-0.0143,-0.0254,-0.0188,-0.0187,-0.0187,0,-0.0138,-0.0091,-0.0055,-0.0043,0.0001,0.002,0.0042,0.007,0.0108,0.0105,0.0125,0.0085,0.0079,0.001,-0.0056,-0.0067,-0.0123,-0.0147,-0.0183,-0.0183,-0.0147,-0.0143,-0.0264,-0.0204,-0.0204,-0.0203,-0.0203,0,-0.0115,-0.0085,-0.0042,-0.002,0.0039,0.0049,0.0109,0.0124,0.0158,0.0212,0.0156,0.0184,0.0086,0.0048,-0.0037,-0.0106,-0.0112,-0.0179,-0.0191,-0.0154,-0.0149,-0.0242,-0.0305,-0.0206,-0.0205,-0.0205,-0.0204,0,-0.0103,-0.0078,-0.0023,0.003,0.005,0.0093,0.0162,0.0212,0.0223,0.0286,0.0287,0.0263,0.0222,0.0122,0.0022,-0.0063,-0.0202,-0.0176,-0.0128,-0.0132,-0.0265,-0.0329,-0.0442,-0.0515,-0.0229,-0.0229,-0.0229,0,-0.0088,-0.0059,0.0017,0.0066,0.0091,0.0155,0.0212,0.0244,0.0304,0.035,0.039,0.0361,0.0386,0.0241,0.009,-0.0051,-0.0182,-0.014,-0.0155,-0.0264,-0.0346,-0.0399,-0.0457,-0.0131,-0.013,-0.0129,-0.0129,0,-0.0048,-0.0025,0.0028,0.0125,0.0189,0.0268,0.0344,0.0405,0.0459,0.0528,0.0614,0.0635,0.0497,0.0399,0.0183,0.0067,-0.021,-0.0127,-0.0253,-0.0284,-0.0337,-0.0414,-0.0118,-0.0121,-0.0122,-0.0122,-0.0123,-0.0123,-0.0008,0.004,0.0115,0.0205,0.0283,0.0386,0.0475,0.0571,0.07,0.0834,0.0811,0.0896,0.0676,0.0416,0.0215,-0.0118,-0.0152,-0.0219,-0.0292,-0.034,-0.0395,-0.0081,-0.0085,-0.0085,-0.0086,-0.0086,-0.0087,0,0.0062,0.0112,0.0196,0.0314,0.0409,0.0435,0.0577,0.0691,0.0877,0.0999,0.1105,0.108,0.0811,0.0478,0.0041,-0.022,-0.0358,-0.0386,-0.0468,-0.0526,-0.025,-0.0229,-0.0248,-0.0248,-0.0247,-0.0247,-0.0247,-0.0247,0.0109,0.0198,0.0239,0.0409,0.0492,0.0645,0.0742,0.0916,0.1051,0.1267,0.1355,0.1376,0.1167,0.032,-0.0263,-0.0413,-0.0642,-0.0668,-0.0816,-0.0632,-0.0623,-0.0614,-0.0611,-0.0709,-0.071,-0.1055,-0.1058,-0.1061]}],[{"header":{"parameterUnit":"m.s-1","parameterCategory":2,"la1":30.2991,"la2":30.254,"lo1":-89.0895,"lo2":-89.0444,"dy":0.0017,"dx":0.0017,"nx":28,"ny":28,"refTime":"2025-03-15T09:00:00:Z","depth":"2","parameterNumber":2,"parameterNumberName":"U-component_of_CURRENTS"},"data":[0,0,0,0,0,0,0,0,0,0,0,0,0,0,0,0,0,0,0,0,0,0,0,0,0,0,0,0,0,0,0,0,0,0,0,0,0,0,0,0,0,0,0,0,0,0,0,0,0,0,0,0,0,0,0,0,0,0,0.2365,0.2365,0,0.2321,0.2321,0.232,0.2283,0.2283,0.2283,0.2282,0.2227,0.2225,0.2224,0,0,0,0,0,0,0,0,0,0,0,0,0,0.2406,0.2405,0.2365,0.2365,0.2364,0.2321,0.232,0.232,0.2283,0.2283,0.2282,0.2282,0.2227,0.2226,0.2224,0,0,0,0,0,0,0,0,0,0,0,0,0,0.2375,0.2405,0.2365,0.2343,0.2341,0.2322,0.232,0.2319,0.2283,0.2283,0.2282,0.2282,0.2228,0.2226,0.2224,0.2214,0,0,0.2217,0.2216,0,0,0,0,0,0,0,0,0.2377,0.2373,0.2347,0.2345,0.2342,0.231,0.2315,0.2285,0.2283,0.2301,0.2282,0.2282,0.2256,0.2251,0.2239,0.2211,0.2209,0.2217,0.2216,0.2215,0.2214,0,0,0,0,0,0,0,0.2379,0.2375,0.2344,0.2346,0.2344,0.2333,0.2328,0.2309,0.2277,0.23,0.2298,0.2298,0.2254,0.2241,0.2237,0.2208,0.2217,0.2215,0.2214,0.2213,0.2235,0.2237,0,0,0,0,0,0,0.2391,0.2377,0.2346,0.2343,0.2363,0.2332,0.2327,0.2318,0.2278,0.2272,0.2299,0.2297,0.2245,0.224,0.2235,0.229,0.2215,0.2213,0.2212,0.2233,0.2236,0.2238,0,0,0,0,0,0,0.2392,0.2389,0.2347,0.2362,0.2357,0.2332,0.2322,0.2317,0.2316,0.2277,0.2271,0.2305,0.2244,0.2238,0.2237,0.2285,0.2212,0.221,0.2231,0.2234,0.2237,0.2355,0,0,0,0,0,0,0.2394,0.2389,0.2396,0.2363,0.2356,0.2351,0.2323,0.2317,0.2317,0.2315,0.228,0.2274,0.2244,0.224,0.2235,0.2281,0.2209,0.2229,0.2233,0.2236,0.2349,0.2361,0.2372,0,0,0,0,0,0.2395,0.2403,0.2396,0.2393,0.2363,0.2352,0.2348,0.2328,0.2318,0.2324,0.2305,0.2276,0.2259,0.224,0.2233,0.2279,0.2227,0.2232,0.2236,0.2343,0.2359,0.2372,0,0,0,0,0,0,0.2415,0.2399,0.2391,0.2391,0.2382,0.2348,0.2355,0.234,0.2327,0.233,0.2289,0.2282,0.2305,0.2272,0.2252,0.2297,0.2243,0.2246,0.2327,0.2341,0.2353,0.2336,0.2207,0,0,0,0,0,0.2426,0.2436,0.2411,0.2417,0.2413,0.2387,0.2384,0.2372,0.2354,0.2349,0.2325,0.2311,0.2315,0.2311,0.2301,0.2315,0.2299,0.2343,0.2355,0.2365,0.2348,0.2383,0.2396,0.2251,0.2251,0.2251,0,0,0.2428,0.2431,0.243,0.2424,0.2413,0.2407,0.2384,0.2388,0.239,0.2345,0.2348,0.235,0.2328,0.2353,0.2361,0.2331,0.2404,0.237,0.2379,0.2356,0.2389,0.2403,0.2415,0.2254,0.2253,0.2253,0,0,0.2433,0.2447,0.2445,0.2449,0.2451,0.2442,0.2448,0.2427,0.2427,0.2433,0.2417,0.2442,0.2425,0.243,0.2428,0.2495,0.2468,0.2505,0.2547,0.2583,0.2595,0.2605,0.2628,0.264,0.2508,0.2508,0.2508,0,0.2436,0.2435,0.2444,0.2448,0.2457,0.2459,0.2455,0.2459,0.2444,0.2458,0.2449,0.2469,0.2461,0.2498,0.2529,0.2522,0.2531,0.2499,0.2599,0.2609,0.2617,0.2638,0.2649,0.2514,0.2514,0.2513,0.2512,0,0.2423,0.2438,0.2446,0.2453,0.2466,0.2477,0.2483,0.2503,0.2515,0.252,0.2566,0.2563,0.2574,0.2598,0.2581,0.2649,0.2635,0.2617,0.2565,0.2639,0.2656,0.2666,0.2523,0.2521,0.2519,0.2518,0,0,0.2385,0.2424,0.2429,0.2443,0.2477,0.2482,0.2515,0.254,0.257,0.259,0.2624,0.2662,0.2676,0.2674,0.2679,0.2711,0.2801,0.2695,0.2694,0.2719,0.2881,0.2804,0.2806,0.2811,0.2813,0.2814,0.2878,0,0.237,0.2386,0.2411,0.2437,0.2446,0.2488,0.2517,0.2556,0.2596,0.2638,0.2673,0.2708,0.2702,0.2727,0.2765,0.2788,0.2826,0.2784,0.2801,0.2801,0.2725,0.2814,0.2554,0.2583,0.2887,0.2888,0.2889,0,0.2335,0.2366,0.2378,0.2444,0.245,0.247,0.2543,0.2569,0.2644,0.2681,0.2736,0.276,0.2821,0.2801,0.2876,0.2855,0.2875,0.2888,0.289,0.2772,0.274,0.2552,0.2587,0.2904,0.2903,0.2902,0.2901,0,0.2299,0.2344,0.2362,0.2381,0.2444,0.2471,0.251,0.2584,0.263,0.2711,0.2766,0.2823,0.2871,0.2901,0.2939,0.292,0.3014,0.2986,0.2932,0.2927,0.2678,0.2648,0.3036,0.3036,0.3036,0.3036,0.3036,0,0.2275,0.2293,0.235,0.2364,0.2407,0.2454,0.2509,0.2566,0.2653,0.2711,0.2784,0.2842,0.2904,0.2964,0.297,0.2985,0.3044,0.2946,0.2943,0.2715,0.2688,0.293,0.2916,0.3038,0.3038,0.3037,0.3037,0,0.2224,0.2258,0.2285,0.2356,0.2387,0.2413,0.2511,0.2549,0.2648,0.2728,0.276,0.2887,0.2958,0.3007,0.3067,0.3029,0.304,0.3029,0.2754,0.2716,0.2918,0.2911,0.2966,0.2963,0.2962,0.296,0.2959,0,0.2188,0.2197,0.2271,0.2291,0.2324,0.2381,0.242,0.253,0.2577,0.274,0.2771,0.2896,0.294,0.3012,0.2961,0.2951,0.3034,0.2709,0.2611,0.2922,0.2914,0.2909,0.2904,0.2342,0.2336,0.2331,0.2327,0,0.2123,0.215,0.2175,0.223,0.227,0.2323,0.2393,0.2435,0.2552,0.2639,0.2745,0.28,0.2861,0.2729,0.2727,0.2683,0.2682,0.2605,0.3012,0.2401,0.2339,0.233,0.2344,0.2281,0.2286,0.2289,0.2292,0.2293,0.2057,0.2061,0.2096,0.2143,0.2195,0.2238,0.2241,0.232,0.239,0.2436,0.2574,0.2535,0.2541,0.2379,0.2315,0.226,0.2454,0.2318,0.2331,0.235,0.2267,0.2206,0.2108,0.2111,0.2114,0.2116,0.2119,0,0.1949,0.1976,0.201,0.2045,0.2059,0.214,0.2193,0.2146,0.2167,0.2208,0.2239,0.199,0.1905,0.1929,0.177,0.1777,0.1737,0.1704,0.1624,0.1671,0.1712,0.1594,0.1257,0.1254,0.1252,0.125,0,0,0.1884,0.1873,0.19,0.189,0.1929,0.1907,0.1911,0.1855,0.1837,0.1747,0.1673,0.1738,0.1823,0.148,0.1464,0.1337,0.1485,0.1273,0.1964,0.1915,0.1952,0.2069,0.1941,0,0,0,0,0]},{"header":{"parameterUnit":"m.s-1","parameterCategory":2,"la1":30.2991,"la2":30.254,"lo1":-89.0895,"lo2":-89.0444,"dy":0.0017,"dx":0.0017,"nx":28,"ny":28,"refTime":"2025-03-15T09:00:00:Z","depth":"2","parameterNumber":3,"parameterNumberName":"V-component_of_CURRENTS"},"data":[0,0,0,0,0,0,0,0,0,0,0,0,0,0,0,0,0,0,0,0,0,0,0,0,0,0,0,0,0,0,0,0,0,0,0,0,0,0,0,0,0,0,0,0,0,0,0,0,0,0,0,0,0,0,0,0,0,0,-0.0076,-0.0076,0,-0.0016,-0.0015,-0.0015,0.0002,0.0002,0.0001,0.0001,0.002,0.002,0.0021,0,0,0,0,0,0,0,0,0,0,0,0,0,-0.0195,-0.0193,-0.0077,-0.0076,-0.0075,-0.0016,-0.0015,-0.0015,0.0002,0.0002,0.0001,0.0001,0.0019,0.002,0.0021,0,0,0,0,0,0,0,0,0,0,0,0,0,-0.0141,-0.0192,-0.0077,-0.0059,-0.0056,-0.0016,-0.0015,-0.0014,0.0002,0.0002,0.0001,0.0001,0.0019,0.002,0.0021,0.0036,0,0,0.0024,0.0025,0,0,0,0,0,0,0,0,-0.0144,-0.0137,-0.0062,-0.006,-0.0057,-0.0014,-0.005,0.0001,0.0002,-0.0021,0.0001,0.0001,0.0005,0.0008,0.0019,0.0036,0.0037,0.0025,0.0025,0.0026,0.0026,0,0,0,0,0,0,0,-0.0148,-0.0139,-0.0054,-0.0061,-0.0058,-0.006,-0.0052,-0.0041,-0.0008,-0.0019,-0.0018,-0.0009,0.0006,0.0018,0.0019,0.0037,0.0025,0.0026,0.0026,0.0027,0.0045,0.0045,0,0,0,0,0,0,-0.0151,-0.0142,-0.0055,-0.0052,-0.0101,-0.0057,-0.0049,-0.0028,-0.0007,-0.0004,-0.0009,-0.0009,0.0016,0.0018,0.002,0.0019,0.0026,0.0027,0.0027,0.0046,0.0045,0.0045,0,0,0,0,0,0,-0.0154,-0.0144,-0.0058,-0.0096,-0.0085,-0.0054,-0.0032,-0.0027,-0.0018,0.0001,0.0004,-0.0005,0.0016,0.0018,0.003,0.002,0.0027,0.0028,0.0046,0.0046,0.0045,0.0028,0,0,0,0,0,0,-0.0157,-0.0145,-0.0137,-0.0096,-0.0083,-0.0033,-0.0031,-0.0025,-0.0011,-0.001,0.0006,0.0007,0.0016,0.0028,0.0031,0.0022,0.0029,0.0046,0.0046,0.0045,0.0029,0.0027,0.0026,0,0,0,0,0,-0.0162,-0.0144,-0.0137,-0.0126,-0.0071,-0.0033,-0.0026,-0.0008,-0.0011,-0.0002,0.0006,0.0007,0.0028,0.003,0.0033,0.0023,0.0046,0.0046,0.0045,0.003,0.0028,0.0026,0,0,0,0,0,0,-0.0181,-0.0139,-0.0131,-0.0098,-0.007,-0.003,-0.002,-0.0009,0.0005,0.0002,0.0012,0.0015,0.0019,0.0026,0.0028,0.0027,0.0034,0.0034,0.0021,0.0019,0.0018,0.0033,0.003,0,0,0,0,0,-0.0184,-0.0169,-0.0124,-0.0101,-0.0086,-0.0056,-0.0041,-0.0025,-0.0004,0.0002,0.0011,0.0017,0.0022,0.0025,0.0034,0.0039,0.0038,0.0032,0.003,0.0029,0.0044,0.0034,0.0033,0.0044,0.0044,0.0044,0,0,-0.0181,-0.0162,-0.0149,-0.0107,-0.0084,-0.0053,-0.0048,-0.0021,-0.0002,0.0001,0.0019,0.0015,0.0023,0.0027,0.0028,0.003,0.0022,0.0029,0.0028,0.0043,0.0034,0.0033,0.0032,0.0044,0.0044,0.0044,0,0,-0.0166,-0.0154,-0.0129,-0.011,-0.0077,-0.0058,-0.0051,-0.0014,-0.0006,0.0013,0.0013,0.0008,0.0021,0.0023,0.0025,0.0023,0.0015,0.0015,0.002,0.001,0.0009,0.0008,-0.0014,-0.0016,0.0012,0.0012,0.0012,0,-0.0164,-0.0129,-0.0117,-0.0091,-0.0073,-0.006,-0.0025,-0.0013,0.0019,0.0029,0.0016,0.0028,0.0023,0.0032,0.0022,0.002,0.0009,0.0024,0.0007,0.0007,0.0007,-0.0015,-0.0017,0.0012,0.0012,0.0012,0.0012,0,-0.0123,-0.0103,-0.009,-0.0055,-0.0035,-0.0009,0.0016,0.0029,0.003,0.0042,0.0048,0.0038,0.0047,0.0029,0.0023,0.0015,0.0005,0.0006,0.0011,0.0004,-0.0018,-0.002,0.001,0.0011,0.0011,0.0011,0,0,-0.01,-0.0065,-0.0063,-0.0041,-0.0016,0.0014,0.0034,0.0068,0.009,0.0082,0.0104,0.0081,0.0067,0.0069,0.005,0.0031,-0.0004,0.0012,0.0011,-0.001,-0.0038,-0.0015,-0.0016,-0.0011,-0.0011,-0.0011,-0.006,0,-0.007,-0.0019,-0.0012,0.0033,0.0065,0.0072,0.0097,0.012,0.0125,0.0143,0.0117,0.0123,0.0084,0.0078,0.0052,0.0025,-0.0007,0.0009,-0.0026,-0.0027,-0.0006,-0.0016,0.0018,-0.0019,-0.0062,-0.0063,-0.0063,0,-0.0033,-0.0004,0.0048,0.0087,0.0103,0.0124,0.0166,0.0194,0.0208,0.0206,0.0196,0.0179,0.0153,0.0115,0.0058,0.0069,0.0011,-0.0022,-0.0025,0.0008,-0.0007,-0.0015,-0.0022,-0.0067,-0.0066,-0.0066,-0.0066,0,-0.0015,0.0034,0.0074,0.0087,0.0137,0.0156,0.0182,0.021,0.0249,0.0242,0.0256,0.0223,0.0214,0.0147,0.0076,0.0061,0.0014,-0.0012,-0.0049,-0.0049,-0.0017,-0.0013,-0.0065,-0.0065,-0.0065,-0.0065,-0.0065,0,0.001,0.004,0.0083,0.0107,0.0164,0.0184,0.0244,0.0257,0.0292,0.0347,0.0287,0.0319,0.022,0.0187,0.01,0.0034,0.0031,-0.0043,-0.0054,-0.0024,-0.002,-0.0051,-0.0049,-0.0067,-0.0066,-0.0066,-0.0066,0,0.0024,0.0047,0.0105,0.0158,0.0175,0.022,0.0292,0.0346,0.035,0.0417,0.0415,0.0394,0.0355,0.0258,0.0163,0.0081,0.0004,-0.0028,0.001,0.0005,-0.0069,-0.0067,-0.008,-0.0079,-0.0079,-0.0078,-0.0078,0,0.004,0.0069,0.0143,0.0189,0.021,0.0277,0.0335,0.037,0.0435,0.0482,0.0526,0.0495,0.0527,0.0393,0.0236,0.0097,0.0043,0.0006,-0.0015,-0.0057,-0.0067,-0.0066,-0.0065,0.0003,0.0004,0.0005,0.0005,0,0.008,0.0101,0.0155,0.0243,0.0306,0.0392,0.0469,0.0535,0.0596,0.0662,0.0756,0.0784,0.0647,0.054,0.0319,0.0216,0.0034,0.0018,-0.0027,0.0013,0.002,0.0011,0.0009,0.0012,0.0012,0.0011,0.0011,0.001,0.0116,0.0164,0.0235,0.032,0.0397,0.0508,0.0603,0.0705,0.0841,0.0962,0.0954,0.0996,0.0802,0.0569,0.0359,0.0107,0.0117,0.0018,0.0016,0.0013,0.0043,0.0052,0.0054,0.0054,0.0053,0.0053,0.0053,0,0.0181,0.0231,0.0312,0.0427,0.0527,0.0549,0.0705,0.0827,0.1017,0.1095,0.1196,0.1051,0.0899,0.0641,0.0295,0.01,0.0065,0.0018,0.0013,0.001,0.0006,0.0033,0.0043,0.0042,0.0041,0.004,0,0,0.0224,0.0312,0.0354,0.0524,0.0603,0.0763,0.0867,0.1052,0.1157,0.1294,0.1303,0.1288,0.0983,0.0723,0.045,0.0239,0.0165,0.0197,0.0235,0.0261,0.0258,0.0045,0.0091,0,0,0,0,0]}],[{"header":{"parameterUnit":"m.s-1","parameterCategory":2,"la1":30.2991,"la2":30.254,"lo1":-89.0895,"lo2":-89.0444,"dy":0.0017,"dx":0.0017,"nx":28,"ny":28,"refTime":"2025-03-15T09:00:00:Z","depth":"4","parameterNumber":2,"parameterNumberName":"U-component_of_CURRENTS"},"data":[0,0,0,0,0,0,0,0,0,0,0,0,0,0,0,0,0,0,0,0,0,0,0,0,0,0,0,0,0,0,0,0,0,0,0,0,0,0,0,0,0,0,0,0,0,0,0,0,0,0,0,0,0,0,0,0,0,0,0.0906,0.0908,0,0.0975,0.0976,0.0976,0.0984,0.0983,0.0983,0.0983,0.1087,0.109,0.1093,0,0,0,0,0,0,0,0,0,0,0,0,0,0.0775,0.0777,0.0906,0.0908,0.0909,0.0975,0.0976,0.0976,0.0984,0.0983,0.0983,0.0983,0.1086,0.109,0.1094,0,0,0,0,0,0,0,0,0,0,0,0,0,0.0833,0.0778,0.0906,0.0923,0.0926,0.0975,0.0976,0.0976,0.0984,0.0983,0.0983,0.0982,0.1085,0.109,0.1094,0.1133,0,0,0.1108,0.111,0,0,0,0,0,0,0,0,0.083,0.0837,0.092,0.0922,0.0925,0.0974,0.0968,0.1032,0.0984,0.0958,0.0983,0.0982,0.1056,0.1063,0.1071,0.1138,0.1142,0.1109,0.1112,0.1114,0.1115,0,0,0,0,0,0,0,0.0826,0.0835,0.093,0.0921,0.0925,0.0926,0.0933,0.098,0.1006,0.096,0.0962,0.0976,0.1057,0.1066,0.1073,0.1144,0.1109,0.1113,0.1116,0.1117,0.1254,0.1255,0,0,0,0,0,0,0.0827,0.0831,0.0928,0.0932,0.088,0.0929,0.0937,0.0956,0.1005,0.1013,0.0976,0.0976,0.1058,0.1068,0.1077,0.1154,0.1113,0.1118,0.112,0.1254,0.1255,0.1256,0,0,0,0,0,0,0.0824,0.0835,0.0925,0.0886,0.0898,0.0932,0.0953,0.0957,0.0993,0.1018,0.1025,0.101,0.1058,0.1071,0.1135,0.1157,0.112,0.1124,0.1253,0.1254,0.1255,0.1291,0,0,0,0,0,0,0.082,0.0833,0.0855,0.0886,0.09,0.0965,0.0954,0.0959,0.1002,0.1003,0.105,0.1057,0.1059,0.1128,0.114,0.1163,0.1128,0.1251,0.1253,0.1255,0.1288,0.1293,0.1297,0,0,0,0,0,0.0815,0.0836,0.0856,0.0868,0.0926,0.0966,0.0973,0.0993,0.1005,0.1023,0.1056,0.1057,0.1146,0.1134,0.1147,0.1172,0.1251,0.1253,0.1255,0.1286,0.1292,0.1297,0,0,0,0,0,0,0.0802,0.0841,0.0862,0.0899,0.094,0.0969,0.0997,0.1015,0.1056,0.1067,0.1085,0.1095,0.1141,0.1163,0.115,0.1212,0.1192,0.1197,0.1212,0.1218,0.1222,0.1206,0.1132,0,0,0,0,0,0.081,0.0834,0.0877,0.0916,0.0939,0.0979,0.1003,0.1019,0.1056,0.1074,0.1116,0.1148,0.1157,0.1195,0.1206,0.1276,0.1279,0.1293,0.1297,0.1301,0.1296,0.1331,0.1338,0.1262,0.1262,0.1262,0,0,0.0828,0.0847,0.0869,0.0915,0.0952,0.0976,0.0992,0.104,0.1056,0.1083,0.1143,0.1164,0.1172,0.1215,0.1241,0.1246,0.1325,0.1303,0.1306,0.1299,0.1333,0.1341,0.1347,0.1263,0.1263,0.1263,0,0,0.0852,0.0887,0.0911,0.0934,0.0985,0.1001,0.1023,0.108,0.1103,0.1162,0.1162,0.1201,0.1264,0.1261,0.1263,0.1308,0.1327,0.1328,0.1368,0.1403,0.1409,0.1415,0.143,0.1437,0.1355,0.1355,0.1355,0,0.087,0.0897,0.0929,0.0945,0.0963,0.1014,0.1036,0.1064,0.1137,0.1169,0.1183,0.1261,0.1265,0.1296,0.13,0.1315,0.1347,0.1349,0.1409,0.1414,0.142,0.1434,0.1441,0.1357,0.1356,0.1356,0.1356,0,0.0898,0.0921,0.0941,0.0968,0.0992,0.1024,0.1058,0.1113,0.1158,0.1188,0.1256,0.1281,0.1331,0.1335,0.133,0.1379,0.1392,0.1391,0.1395,0.1429,0.1442,0.1449,0.136,0.1359,0.1358,0.1358,0,0,0.0924,0.0953,0.0959,0.0969,0.1001,0.1025,0.1065,0.1116,0.116,0.1234,0.1295,0.1311,0.1364,0.1368,0.1391,0.1426,0.1473,0.1444,0.1445,0.1458,0.1564,0.1466,0.1463,0.1512,0.1514,0.1515,0.1558,0,0.0939,0.0953,0.0965,0.0991,0.1004,0.1045,0.1077,0.1129,0.1184,0.1262,0.1306,0.1363,0.1365,0.1415,0.1448,0.1462,0.1495,0.1461,0.1529,0.153,0.1438,0.1468,0.1519,0.1563,0.1564,0.1565,0.1566,0,0.0945,0.0953,0.0972,0.0996,0.1012,0.1044,0.1113,0.115,0.1243,0.1295,0.1379,0.1422,0.1483,0.148,0.1543,0.1541,0.1553,0.1561,0.1563,0.146,0.1443,0.1522,0.1578,0.1577,0.1576,0.1576,0.1575,0,0.0919,0.0949,0.096,0.0966,0.1012,0.1057,0.1104,0.1183,0.1231,0.1342,0.14,0.1479,0.1538,0.1577,0.1599,0.1594,0.1661,0.1647,0.1566,0.156,0.162,0.1613,0.1682,0.1682,0.1682,0.1682,0.1682,0,0.0888,0.09,0.0965,0.0973,0.1015,0.1062,0.1133,0.1193,0.1297,0.1347,0.1437,0.1485,0.1573,0.1622,0.163,0.162,0.169,0.1566,0.1565,0.1633,0.1628,0.1624,0.1617,0.1683,0.1683,0.1683,0.1682,0,0.0828,0.0868,0.0899,0.0977,0.1001,0.1046,0.1148,0.1199,0.1307,0.1381,0.1425,0.1521,0.1577,0.1641,0.1691,0.1644,0.1647,0.1625,0.1695,0.1698,0.1512,0.1507,0.1528,0.1524,0.1522,0.152,0.1518,0,0.0787,0.0796,0.0893,0.0921,0.0964,0.1037,0.108,0.1197,0.1236,0.1373,0.1388,0.15,0.1547,0.1544,0.1607,0.1631,0.1611,0.1597,0.1539,0.15,0.1498,0.1496,0.1494,0.1514,0.1513,0.1512,0.1512,0,0.0716,0.0775,0.0809,0.0864,0.0926,0.0959,0.1032,0.1057,0.1176,0.1295,0.1329,0.1375,0.1432,0.1469,0.1515,0.152,0.1595,0.1569,0.1573,0.1519,0.1484,0.1483,0.1484,0.1502,0.1504,0.1505,0.1505,0,0.0686,0.0696,0.076,0.0798,0.0849,0.0852,0.0908,0.0954,0.1016,0.1174,0.1177,0.1295,0.1402,0.1411,0.1441,0.1457,0.1424,0.1361,0.1376,0.1387,0.1322,0.1255,0.1201,0,0,0,0,0,0.0648,0.0646,0.0675,0.0714,0.0751,0.0778,0.0845,0.0904,0.1026,0.1021,0.1103,0.1153,0.1217,0.1268,0.1257,0.1366,0.142,0.1343,0.1351,0.1452,0.1463,0.14,0,0,0,0,0,0,0.0626,0.0648,0.0652,0.062,0.0622,0.0647,0.0688,0.0772,0.0769,0.091,0.0949,0.1074,0.115,0.1222,0.1235,0.1254,0.123,0.143,0.1427,0.1446,0.1456,0.1464,0.1404,0,0,0,0,0]},{"header":{"parameterUnit":"m.s-1","parameterCategory":2,"la1":30.2991,"la2":30.254,"lo1":-89.0895,"lo2":-89.0444,"dy":0.0017,"dx":0.0017,"nx":28,"ny":28,"refTime":"2025-03-15T09:00:00:Z","depth":"4","parameterNumber":3,"parameterNumberName":"V-component_of_CURRENTS"},"data":[0,0,0,0,0,0,0,0,0,0,0,0,0,0,0,0,0,0,0,0,0,0,0,0,0,0,0,0,0,0,0,0,0,0,0,0,0,0,0,0,0,0,0,0,0,0,0,0,0,0,0,0,0,0,0,0,0,0,0.0296,0.0295,0,0.0295,0.0295,0.0295,0.0317,0.0318,0.0318,0.0319,0.0339,0.0339,0.0339,0,0,0,0,0,0,0,0,0,0,0,0,0,0.0345,0.0343,0.0296,0.0295,0.0295,0.0295,0.0295,0.0295,0.0317,0.0318,0.0319,0.0319,0.0339,0.0339,0.0339,0,0,0,0,0,0,0,0,0,0,0,0,0,0.0332,0.0343,0.0296,0.0307,0.0308,0.0295,0.0295,0.0295,0.0317,0.0318,0.0319,0.032,0.0339,0.0339,0.0339,0.032,0,0,0.0338,0.0338,0,0,0,0,0,0,0,0,0.0332,0.033,0.0305,0.0306,0.0307,0.0307,0.0319,0.0304,0.0317,0.0313,0.0319,0.032,0.0329,0.033,0.0328,0.0321,0.0322,0.0338,0.0338,0.0338,0.0338,0,0,0,0,0,0,0,0.0333,0.033,0.0295,0.0305,0.0306,0.0321,0.032,0.0317,0.0317,0.0314,0.0315,0.0315,0.033,0.0328,0.0328,0.0322,0.0338,0.0338,0.0338,0.0338,0.0344,0.0345,0,0,0,0,0,0,0.033,0.033,0.0295,0.0295,0.0322,0.032,0.0318,0.0306,0.0316,0.0319,0.0314,0.0316,0.0327,0.0328,0.0329,0.0362,0.0338,0.0338,0.0338,0.0344,0.0344,0.0345,0,0,0,0,0,0,0.0331,0.0327,0.0295,0.0314,0.0311,0.0318,0.0304,0.0306,0.031,0.0317,0.0319,0.0318,0.0328,0.0329,0.0338,0.0361,0.0338,0.0338,0.0344,0.0344,0.0345,0.0393,0,0,0,0,0,0,0.0332,0.0327,0.0321,0.0313,0.031,0.0296,0.0303,0.0305,0.0308,0.031,0.032,0.0322,0.0329,0.0338,0.0338,0.0361,0.0338,0.0344,0.0344,0.0344,0.0391,0.0395,0.0398,0,0,0,0,0,0.0334,0.0323,0.032,0.0316,0.0299,0.0296,0.0296,0.0305,0.0307,0.0311,0.032,0.0322,0.0341,0.0338,0.0338,0.0361,0.0344,0.0344,0.0344,0.039,0.0394,0.0398,0,0,0,0,0,0,0.0331,0.0324,0.0321,0.0305,0.0304,0.0301,0.0305,0.0304,0.0311,0.0317,0.0322,0.0325,0.0345,0.0336,0.0333,0.0361,0.0343,0.0344,0.0378,0.0382,0.0386,0.0388,0.0338,0,0,0,0,0,0.0328,0.0326,0.0316,0.0305,0.0305,0.0303,0.0303,0.0307,0.031,0.0315,0.0321,0.0329,0.0343,0.035,0.0356,0.0364,0.0349,0.0378,0.0381,0.0385,0.0385,0.0382,0.0386,0.0346,0.0346,0.0346,0,0,0.0322,0.0319,0.0317,0.0306,0.0307,0.0322,0.0306,0.0309,0.0329,0.0315,0.0343,0.0341,0.0347,0.0368,0.0376,0.0367,0.0386,0.0385,0.0388,0.0387,0.0383,0.0387,0.0391,0.0346,0.0346,0.0346,0,0,0.0324,0.0309,0.0316,0.0326,0.033,0.0331,0.0333,0.0332,0.034,0.0355,0.0359,0.0367,0.0379,0.0393,0.0402,0.0421,0.0405,0.0422,0.0444,0.0442,0.0446,0.0448,0.0429,0.043,0.0423,0.0423,0.0423,0,0.032,0.033,0.0317,0.0339,0.0358,0.034,0.0366,0.0368,0.0372,0.0382,0.0373,0.0395,0.0397,0.043,0.0439,0.0433,0.0417,0.0433,0.0448,0.045,0.0453,0.0432,0.0432,0.0426,0.0425,0.0425,0.0425,0,0.0342,0.0356,0.0363,0.0391,0.0405,0.0421,0.0429,0.0435,0.0437,0.0441,0.0462,0.0454,0.0466,0.0469,0.0462,0.0482,0.0461,0.0455,0.0441,0.046,0.0436,0.0436,0.0429,0.0428,0.0428,0.0427,0,0,0.0324,0.037,0.0376,0.0411,0.0441,0.0455,0.0485,0.0508,0.0529,0.0522,0.0549,0.0557,0.0535,0.054,0.0526,0.0519,0.0518,0.0491,0.049,0.0477,0.0496,0.0453,0.0448,0.0514,0.0514,0.0515,0.0472,0,0.0351,0.0407,0.0424,0.0488,0.0523,0.0534,0.0568,0.0586,0.0589,0.0604,0.0588,0.0606,0.0569,0.0572,0.0558,0.0534,0.0519,0.0529,0.0474,0.0472,0.0437,0.0447,0.0516,0.0471,0.0471,0.0471,0.0471,0,0.0381,0.0419,0.0485,0.0556,0.0571,0.0606,0.0659,0.0685,0.0696,0.0695,0.0691,0.067,0.0662,0.0623,0.0581,0.0587,0.0541,0.0512,0.051,0.0453,0.0428,0.0448,0.0469,0.0469,0.047,0.047,0.047,0,0.0401,0.0468,0.0527,0.0555,0.0621,0.0655,0.0687,0.0715,0.0749,0.075,0.0762,0.0737,0.0733,0.0675,0.0602,0.0593,0.0545,0.053,0.0445,0.0441,0.0472,0.0469,0.0494,0.0494,0.0495,0.0495,0.0495,0,0.044,0.0492,0.0543,0.0582,0.0654,0.069,0.0757,0.0775,0.0812,0.0852,0.0807,0.0817,0.0745,0.0703,0.0623,0.053,0.0561,0.0447,0.0431,0.0491,0.0491,0.0471,0.0469,0.0493,0.0493,0.0494,0.0494,0,0.0468,0.0503,0.0574,0.0642,0.067,0.0724,0.0812,0.0859,0.0876,0.0922,0.0926,0.0895,0.0826,0.0739,0.0651,0.0567,0.0481,0.0438,0.0504,0.0492,0.0369,0.037,0.0338,0.0336,0.0334,0.0333,0.0332,0,0.049,0.053,0.0609,0.0655,0.0694,0.0774,0.0834,0.0888,0.0937,0.0963,0.0988,0.0938,0.0891,0.0732,0.0635,0.0478,0.0448,0.0396,0.0379,0.0367,0.0354,0.0358,0.036,0.0329,0.0329,0.0329,0.0328,0,0.0528,0.0552,0.06,0.0687,0.0762,0.0849,0.0932,0.0968,0.1023,0.1042,0.1022,0.093,0.0847,0.0718,0.0598,0.0485,0.0427,0.0379,0.0381,0.0364,0.0357,0.0346,0.0351,0.0323,0.0324,0.0324,0.0325,0,0.054,0.0576,0.063,0.0712,0.0809,0.0897,0.0937,0.099,0.1038,0.1054,0.1048,0.0945,0.0905,0.0722,0.0616,0.0495,0.0452,0.04,0.04,0.0404,0.0429,0.0429,0.0404,0,0,0,0,0,0.0546,0.0587,0.0657,0.0746,0.0845,0.0903,0.0998,0.103,0.1072,0.1057,0.1051,0.0962,0.0783,0.0719,0.0588,0.058,0.0434,0.042,0.0374,0.0294,0.03,0.0312,0,0,0,0,0,0,0.055,0.061,0.0646,0.0763,0.0828,0.0942,0.0999,0.1027,0.1017,0.103,0.0942,0.0907,0.0745,0.0852,0.0577,0.0545,0.0491,0.0349,0.0346,0.029,0.0296,0.0301,0.0315,0,0,0,0,0]}]]